# Tabular Observed and Forecast Hydrograph Information
#
# Location: Walker River - Wabuska (WALN2)
#
# File Generation Time: 05/04/2026 at 07:11 AM PDT
# Data Interval: 1 Hour
#
# Most Recent Date & Time of Maximum Observed: 04/29/2026 at 04:00 PM PDT
# Maximum Observed Stage: 3.74 Feet
# Maximum Observed Flow: 80 cfs
#
# Earliest Date & Time of Maximum Forecast: 05/06/2026 at 12:00 PM PDT
# Maximum Forecast Stage: 3.61 Feet
# Maximum Forecast Flow: 69 cfs
#
# OBSERVED
#
# Date & Time (Local) Stage (Feet) Flow (cfs) Trend Observed Status
# ---------------------------------------------------------------------------------
04/29/2026 07 AM PDT 3.72 78 Normal
04/29/2026 08 AM PDT 3.73 79 + Normal
04/29/2026 09 AM PDT 3.72 78 - Normal
04/29/2026 10 AM PDT 3.73 79 + Normal
04/29/2026 11 AM PDT 3.74 80 + Normal
04/29/2026 12 PM PDT 3.73 79 - Normal
04/29/2026 01 PM PDT 3.74 80 + Normal
04/29/2026 02 PM PDT 3.74 80 0 Normal
04/29/2026 03 PM PDT 3.74 80 0 Normal
04/29/2026 04 PM PDT 3.74 80 0 Normal
04/29/2026 05 PM PDT 3.73 79 - Normal
04/29/2026 06 PM PDT 3.71 77 - Normal
04/29/2026 07 PM PDT 3.71 77 0 Normal
04/29/2026 08 PM PDT 3.70 76 - Normal
04/29/2026 09 PM PDT 3.69 76 - Normal
04/29/2026 10 PM PDT 3.68 75 - Normal
04/29/2026 11 PM PDT 3.66 73 - Normal
04/30/2026 12 AM PDT 3.65 72 - Normal
04/30/2026 01 AM PDT 3.63 71 - Normal
04/30/2026 02 AM PDT 3.62 70 - Normal
04/30/2026 03 AM PDT 3.61 69 - Normal
04/30/2026 04 AM PDT 3.60 68 - Normal
04/30/2026 05 AM PDT 3.59 68 - Normal
04/30/2026 06 AM PDT 3.59 68 0 Normal
04/30/2026 07 AM PDT 3.58 67 - Normal
04/30/2026 08 AM PDT 3.58 67 0 Normal
04/30/2026 09 AM PDT 3.58 67 0 Normal
04/30/2026 10 AM PDT 3.57 66 - Normal
04/30/2026 11 AM PDT 3.57 66 0 Normal
04/30/2026 12 PM PDT 3.56 65 - Normal
04/30/2026 01 PM PDT 3.58 67 + Normal
04/30/2026 02 PM PDT 3.57 66 - Normal
04/30/2026 03 PM PDT 3.57 66 0 Normal
04/30/2026 04 PM PDT 3.55 65 - Normal
04/30/2026 05 PM PDT 3.56 65 + Normal
04/30/2026 06 PM PDT 3.56 65 0 Normal
04/30/2026 07 PM PDT 3.56 65 0 Normal
04/30/2026 08 PM PDT 3.55 65 - Normal
04/30/2026 09 PM PDT 3.56 65 + Normal
04/30/2026 10 PM PDT 3.56 65 0 Normal
04/30/2026 11 PM PDT 3.57 66 + Normal
05/01/2026 12 AM PDT 3.57 66 0 Normal
05/01/2026 01 AM PDT 3.57 66 0 Normal
05/01/2026 02 AM PDT 3.57 66 0 Normal
05/01/2026 03 AM PDT 3.57 66 0 Normal
05/01/2026 04 AM PDT 3.58 67 + Normal
05/01/2026 05 AM PDT 3.57 66 - Normal
05/01/2026 06 AM PDT 3.59 68 + Normal
05/01/2026 07 AM PDT 3.59 68 0 Normal
05/01/2026 08 AM PDT 3.59 68 0 Normal
05/01/2026 09 AM PDT 3.59 68 0 Normal
05/01/2026 10 AM PDT 3.59 68 0 Normal
05/01/2026 11 AM PDT 3.60 68 + Normal
05/01/2026 12 PM PDT 3.60 68 0 Normal
05/01/2026 01 PM PDT 3.60 68 0 Normal
05/01/2026 02 PM PDT 3.60 68 0 Normal
05/01/2026 03 PM PDT 3.59 68 - Normal
05/01/2026 04 PM PDT 3.59 68 0 Normal
05/01/2026 05 PM PDT 3.59 68 0 Normal
05/01/2026 06 PM PDT 3.59 68 0 Normal
05/01/2026 07 PM PDT 3.58 67 - Normal
05/01/2026 08 PM PDT 3.58 67 0 Normal
05/01/2026 09 PM PDT 3.57 66 - Normal
05/01/2026 10 PM PDT 3.58 67 + Normal
05/01/2026 11 PM PDT 3.57 66 - Normal
05/02/2026 12 AM PDT 3.57 66 0 Normal
05/02/2026 01 AM PDT 3.57 66 0 Normal
05/02/2026 02 AM PDT 3.54 64 - Normal
05/02/2026 03 AM PDT 3.55 65 + Normal
05/02/2026 04 AM PDT 3.55 65 0 Normal
05/02/2026 05 AM PDT 3.54 64 - Normal
05/02/2026 06 AM PDT 3.54 64 0 Normal
05/02/2026 07 AM PDT 3.53 63 - Normal
05/02/2026 08 AM PDT 3.53 63 0 Normal
05/02/2026 09 AM PDT 3.53 63 0 Normal
05/02/2026 10 AM PDT 3.52 62 - Normal
05/02/2026 11 AM PDT 3.52 62 0 Normal
05/02/2026 12 PM PDT 3.53 63 + Normal
05/02/2026 01 PM PDT 3.52 62 - Normal
05/02/2026 02 PM PDT 3.52 62 0 Normal
05/02/2026 03 PM PDT 3.53 63 + Normal
05/02/2026 04 PM PDT 3.52 62 - Normal
05/02/2026 05 PM PDT 3.52 62 0 Normal
05/02/2026 06 PM PDT 3.53 63 + Normal
05/02/2026 07 PM PDT 3.52 62 - Normal
05/02/2026 08 PM PDT 3.53 63 + Normal
05/02/2026 09 PM PDT 3.56 65 + Normal
05/02/2026 10 PM PDT 3.57 66 + Normal
05/02/2026 11 PM PDT 3.58 67 + Normal
05/03/2026 12 AM PDT 3.60 68 + Normal
05/03/2026 01 AM PDT 3.60 68 0 Normal
05/03/2026 02 AM PDT 3.60 68 0 Normal
05/03/2026 03 AM PDT 3.59 68 - Normal
05/03/2026 04 AM PDT 3.59 68 0 Normal
05/03/2026 05 AM PDT 3.57 66 - Normal
05/03/2026 06 AM PDT 3.55 65 - Normal
05/03/2026 07 AM PDT 3.54 64 - Normal
05/03/2026 08 AM PDT 3.52 62 - Normal
05/03/2026 09 AM PDT 3.51 62 - Normal
05/03/2026 10 AM PDT 3.49 60 - Normal
05/03/2026 11 AM PDT 3.49 60 0 Normal
05/03/2026 12 PM PDT 3.48 60 - Normal
05/03/2026 01 PM PDT 3.47 59 - Normal
05/03/2026 02 PM PDT 3.46 58 - Normal
05/03/2026 03 PM PDT 3.43 56 - Normal
05/03/2026 04 PM PDT 3.44 57 + Normal
05/03/2026 05 PM PDT 3.44 57 0 Normal
05/03/2026 06 PM PDT 3.44 57 0 Normal
05/03/2026 07 PM PDT 3.44 57 0 Normal
05/03/2026 08 PM PDT 3.44 57 0 Normal
05/03/2026 09 PM PDT 3.45 57 + Normal
05/03/2026 10 PM PDT 3.46 58 + Normal
05/03/2026 11 PM PDT 3.47 59 + Normal
05/04/2026 12 AM PDT 3.47 59 0 Normal
05/04/2026 01 AM PDT 3.49 60 + Normal
05/04/2026 02 AM PDT 3.51 62 + Normal
05/04/2026 03 AM PDT 3.51 62 0 Normal
05/04/2026 04 AM PDT 3.53 63 + Normal
05/04/2026 05 AM PDT 3.55 65 + Normal
05/04/2026 06 AM PDT 3.57 66 + Normal
05/04/2026 07 AM PDT 3.57 66 0 Normal
#
# FORECAST
#
# Date & Time (Local) Stage (Feet) Flow (cfs) Trend Forecast Status
# ---------------------------------------------------------------------------------
05/04/2026 08 AM PDT 3.57 66 Normal
05/04/2026 09 AM PDT 3.57 66 0 Normal
05/04/2026 10 AM PDT 3.58 67 + Normal
05/04/2026 11 AM PDT 3.58 67 0 Normal
05/04/2026 12 PM PDT 3.58 67 0 Normal
05/04/2026 01 PM PDT 3.58 67 0 Normal
05/04/2026 02 PM PDT 3.58 67 0 Normal
05/04/2026 03 PM PDT 3.58 67 0 Normal
05/04/2026 04 PM PDT 3.59 68 + Normal
05/04/2026 05 PM PDT 3.59 68 0 Normal
05/04/2026 06 PM PDT 3.58 67 - Normal
05/04/2026 07 PM PDT 3.58 67 0 Normal
05/04/2026 08 PM PDT 3.58 67 0 Normal
05/04/2026 09 PM PDT 3.58 67 0 Normal
05/04/2026 10 PM PDT 3.58 67 0 Normal
05/04/2026 11 PM PDT 3.58 67 0 Normal
05/05/2026 12 AM PDT 3.58 67 0 Normal
05/05/2026 01 AM PDT 3.59 68 + Normal
05/05/2026 02 AM PDT 3.59 68 0 Normal
05/05/2026 03 AM PDT 3.59 68 0 Normal
05/05/2026 04 AM PDT 3.59 68 0 Normal
05/05/2026 05 AM PDT 3.59 68 0 Normal
05/05/2026 06 AM PDT 3.59 68 0 Normal
05/05/2026 07 AM PDT 3.59 68 0 Normal
05/05/2026 08 AM PDT 3.59 68 0 Normal
05/05/2026 09 AM PDT 3.59 68 0 Normal
05/05/2026 10 AM PDT 3.59 68 0 Normal
05/05/2026 11 AM PDT 3.59 68 0 Normal
05/05/2026 12 PM PDT 3.59 68 0 Normal
05/05/2026 01 PM PDT 3.59 68 0 Normal
05/05/2026 02 PM PDT 3.59 68 0 Normal
05/05/2026 03 PM PDT 3.59 68 0 Normal
05/05/2026 04 PM PDT 3.59 68 0 Normal
05/05/2026 05 PM PDT 3.59 68 0 Normal
05/05/2026 06 PM PDT 3.59 68 0 Normal
05/05/2026 07 PM PDT 3.59 68 0 Normal
05/05/2026 08 PM PDT 3.59 68 0 Normal
05/05/2026 09 PM PDT 3.59 68 0 Normal
05/05/2026 10 PM PDT 3.59 68 0 Normal
05/05/2026 11 PM PDT 3.59 68 0 Normal
05/06/2026 12 AM PDT 3.60 68 + Normal
05/06/2026 01 AM PDT 3.60 68 0 Normal
05/06/2026 02 AM PDT 3.60 68 0 Normal
05/06/2026 03 AM PDT 3.60 68 0 Normal
05/06/2026 04 AM PDT 3.60 68 0 Normal
05/06/2026 05 AM PDT 3.60 68 0 Normal
05/06/2026 06 AM PDT 3.60 68 0 Normal
05/06/2026 07 AM PDT 3.60 68 0 Normal
05/06/2026 08 AM PDT 3.60 68 0 Normal
05/06/2026 09 AM PDT 3.60 68 0 Normal
05/06/2026 10 AM PDT 3.60 68 0 Normal
05/06/2026 11 AM PDT 3.60 68 0 Normal
05/06/2026 12 PM PDT 3.61 69 + Normal
05/06/2026 01 PM PDT 3.61 69 0 Normal
05/06/2026 02 PM PDT 3.61 69 0 Normal
05/06/2026 03 PM PDT 3.61 69 0 Normal
05/06/2026 04 PM PDT 3.61 69 0 Normal
05/06/2026 05 PM PDT 3.61 69 0 Normal
05/06/2026 06 PM PDT 3.60 68 - Normal
05/06/2026 07 PM PDT 3.60 68 0 Normal
05/06/2026 08 PM PDT 3.60 68 0 Normal
05/06/2026 09 PM PDT 3.60 68 0 Normal
05/06/2026 10 PM PDT 3.60 68 0 Normal
05/06/2026 11 PM PDT 3.60 68 0 Normal
05/07/2026 12 AM PDT 3.60 68 0 Normal
05/07/2026 01 AM PDT 3.60 68 0 Normal
05/07/2026 02 AM PDT 3.60 68 0 Normal
05/07/2026 03 AM PDT 3.60 68 0 Normal
05/07/2026 04 AM PDT 3.60 68 0 Normal
05/07/2026 05 AM PDT 3.60 68 0 Normal
05/07/2026 06 AM PDT 3.60 68 0 Normal
05/07/2026 07 AM PDT 3.60 68 0 Normal
05/07/2026 08 AM PDT 3.59 68 - Normal
05/07/2026 09 AM PDT 3.59 68 0 Normal
05/07/2026 10 AM PDT 3.59 68 0 Normal
05/07/2026 11 AM PDT 3.59 68 0 Normal
05/07/2026 12 PM PDT 3.59 68 0 Normal
05/07/2026 01 PM PDT 3.59 68 0 Normal
05/07/2026 02 PM PDT 3.59 68 0 Normal
05/07/2026 03 PM PDT 3.59 68 0 Normal
05/07/2026 04 PM PDT 3.58 67 - Normal
05/07/2026 05 PM PDT 3.58 67 0 Normal
05/07/2026 06 PM PDT 3.58 67 0 Normal
05/07/2026 07 PM PDT 3.57 66 - Normal
05/07/2026 08 PM PDT 3.57 66 0 Normal
05/07/2026 09 PM PDT 3.57 66 0 Normal
05/07/2026 10 PM PDT 3.57 66 0 Normal
05/07/2026 11 PM PDT 3.57 66 0 Normal
05/08/2026 12 AM PDT 3.57 66 0 Normal
05/08/2026 01 AM PDT 3.57 66 0 Normal
05/08/2026 02 AM PDT 3.57 66 0 Normal
05/08/2026 03 AM PDT 3.57 66 0 Normal
05/08/2026 04 AM PDT 3.57 66 0 Normal
05/08/2026 05 AM PDT 3.57 66 0 Normal
05/08/2026 06 AM PDT 3.56 65 - Normal
05/08/2026 07 AM PDT 3.56 65 0 Normal
05/08/2026 08 AM PDT 3.56 65 0 Normal
05/08/2026 09 AM PDT 3.56 65 0 Normal
05/08/2026 10 AM PDT 3.56 65 0 Normal
05/08/2026 11 AM PDT 3.56 65 0 Normal
05/08/2026 12 PM PDT 3.56 65 0 Normal
05/08/2026 01 PM PDT 3.56 65 0 Normal
05/08/2026 02 PM PDT 3.56 65 0 Normal
05/08/2026 03 PM PDT 3.56 65 0 Normal
05/08/2026 04 PM PDT 3.56 65 0 Normal
05/08/2026 05 PM PDT 3.56 65 0 Normal
05/08/2026 06 PM PDT 3.55 65 - Normal
05/08/2026 07 PM PDT 3.55 65 0 Normal
05/08/2026 08 PM PDT 3.55 65 0 Normal
05/08/2026 09 PM PDT 3.56 65 + Normal
05/08/2026 10 PM PDT 3.56 65 0 Normal
05/08/2026 11 PM PDT 3.56 65 0 Normal
05/09/2026 12 AM PDT 3.56 65 0 Normal
05/09/2026 01 AM PDT 3.56 65 0 Normal
05/09/2026 02 AM PDT 3.56 65 0 Normal
05/09/2026 03 AM PDT 3.56 65 0 Normal
05/09/2026 04 AM PDT 3.56 65 0 Normal
05/09/2026 05 AM PDT 3.56 65 0 Normal
#
# NOTE 1: Stages are rounded to the nearest hundredth (.01) of a foot.
# NOTE 2: Flows are rounded to the nearest (1) cfs.
# NOTE 3: Trends are determined using hourly change in unrounded stage and flow.
# NOTE 4: Maximum Values are determined using unrounded stage and flow.
|